,,,PA_Meas_PMT16A,,PR_Meas_QMR101_102,,RH_Meas_QMH101,,SR_Meas_QMS101,,TA_Meas_QMH101,,GenWind,,GenWind,
date,time,status,PA,status,PR,status,RH,status,SR,status,TA,status,DirAvg,status,SpdAvg,
2010-07-10, 00:00:04,VALID,1002.39,VALID,0,VALID,89.1292,VALID,0,VALID,24.2653,VALID,126,VALID,0,
2010-07-10, 00:01:04,VALID,1002.36,VALID,0,VALID,88.9614,VALID,0,VALID,24.2653,VALID,126,VALID,0,
2010-07-10, 00:02:04,VALID,1002.36,VALID,0,VALID,88.8927,VALID,0,VALID,24.2866,VALID,126,VALID,0,
2010-07-10, 00:03:04,VALID,1002.39,VALID,0,VALID,88.8774,VALID,0,VALID,24.2653,VALID,126,VALID,0,
2010-07-10, 00:04:04,VALID,1002.4,VALID,0,VALID,88.8393,VALID,0,VALID,24.2458,VALID,126,VALID,0,
2010-07-10, 00:05:04,VALID,1002.43,VALID,0,VALID,89.0224,VALID,0,VALID,24.2653,VALID,126,VALID,0,
2010-07-10, 00:06:04,VALID,1002.44,VALID,0,VALID,89.1368,VALID,0,VALID,24.2671,VALID,126,VALID,0,
2010-07-10, 00:07:04,VALID,1002.44,VALID,0,VALID,89.2894,VALID,0,VALID,24.2263,VALID,50,VALID,0,
2010-07-10, 00:08:04,VALID,1002.45,VALID,0,VALID,89.6557,VALID,0,VALID,24.1872,VALID,49,VALID,0,
2010-07-10, 00:09:04,VALID,1002.45,VALID,0,VALID,89.938,VALID,0,VALID,24.1891,VALID,49,VALID,0,
2010-07-10, 00:10:04,VALID,1002.44,VALID,0,VALID,90.1363,VALID,0,VALID,24.1891,VALID,49,VALID,0,
2010-07-10, 00:11:04,VALID,1002.43,VALID,0,VALID,90.1058,VALID,0,VALID,24.1287,VALID,49,VALID,0,
2010-07-10, 00:12:04,VALID,1002.43,VALID,0,VALID,90.3423,VALID,0,VALID,24.1092,VALID,49,VALID,0,
2010-07-10, 00:13:04,VALID,1002.43,VALID,0,VALID,90.6323,VALID,0,VALID,24.0897,VALID,49,VALID,0,
2010-07-10, 00:14:04,VALID,1002.44,VALID,0,VALID,90.8383,VALID,0,VALID,24.0701,VALID,49,VALID,0,
2010-07-10, 00:15:04,VALID,1002.45,VALID,0,VALID,90.8764,VALID,0,VALID,24.0525,VALID,49,VALID,0,
2010-07-10, 00:16:04,VALID,1002.44,VALID,0,VALID,91.1434,VALID,0,VALID,24.0134,VALID,49,VALID,0,
2010-07-10, 00:17:04,VALID,1002.42,VALID,0,VALID,91.4181,VALID,0,VALID,23.9921,VALID,49,VALID,0,
2010-07-10, 00:18:04,VALID,1002.44,VALID,0,VALID,91.6088,VALID,0,VALID,23.9726,VALID,49,VALID,0,
2010-07-10, 00:19:04,VALID,1002.41,VALID,0,VALID,91.708,VALID,0,VALID,23.9726,VALID,49,VALID,0,
2010-07-10, 00:20:04,VALID,1002.38,VALID,0,VALID,91.7538,VALID,0,VALID,23.9939,VALID,49,VALID,0,
2010-07-10, 00:21:04,VALID,1002.34,VALID,0,VALID,91.7309,VALID,0,VALID,23.9531,VALID,49,VALID,0,
2010-07-10, 00:22:04,VALID,1002.34,VALID,0,VALID,91.6851,VALID,0,VALID,23.9354,VALID,49,VALID,0,
2010-07-10, 00:23:04,VALID,1002.31,VALID,0,VALID,91.6851,VALID,0,VALID,23.9159,VALID,49,VALID,0,
2010-07-10, 00:24:04,VALID,1002.3,VALID,0,VALID,91.6928,VALID,0,VALID,23.875,VALID,49,VALID,0,
2010-07-10, 00:25:04,VALID,1002.28,VALID,0,VALID,91.7538,VALID,0,VALID,23.8555,VALID,49,VALID,0,
2010-07-10, 00:26:04,VALID,1002.27,VALID,0,VALID,91.914,VALID,0,VALID,23.8768,VALID,49,VALID,0,
2010-07-10, 00:27:04,VALID,1002.29,VALID,0,VALID,91.9522,VALID,0,VALID,23.8555,VALID,49,VALID,0,
2010-07-10, 00:28:04,VALID,1002.28,VALID,0,VALID,91.8377,VALID,0,VALID,23.8768,VALID,49,VALID,0,
2010-07-10, 00:29:04,VALID,1002.24,VALID,0,VALID,91.6775,VALID,0,VALID,23.836,VALID,49,VALID,0,
2010-07-10, 00:30:04,VALID,1002.27,VALID,0,VALID,91.5402,VALID,0,VALID,23.836,VALID,49,VALID,0,
2010-07-10, 00:31:04,VALID,1002.21,VALID,0,VALID,91.3647,VALID,0,VALID,23.836,VALID,49,VALID,0,
2010-07-10, 00:32:04,VALID,1002.17,VALID,0,VALID,91.2655,VALID,0.112286,VALID,23.8147,VALID,54,VALID,0.752734,
2010-07-10, 00:33:04,VALID,1002.11,VALID,0,VALID,91.3418,VALID,0,VALID,23.8378,VALID,55,VALID,0.930078,
2010-07-10, 00:34:04,VALID,1002.07,VALID,0,VALID,91.2579,VALID,0,VALID,23.8378,VALID,55,VALID,0.723047,
2010-07-10, 00:35:04,VALID,1002.02,VALID,0,VALID,91.2274,VALID,0,VALID,23.8165,VALID,55,VALID,0.546484,
2010-07-10, 00:36:04,VALID,1002.02,VALID,0,VALID,91.2731,VALID,0,VALID,23.797,VALID,55,VALID,0.434766,
2010-07-10, 00:37:04,VALID,1001.99,VALID,0,VALID,91.235,VALID,0,VALID,23.7775,VALID,55,VALID,0.0160156,
2010-07-10, 00:38:04,VALID,1002,VALID,0,VALID,91.3189,VALID,0,VALID,23.7384,VALID,55,VALID,0,
2010-07-10, 00:39:04,VALID,1002.01,VALID,0,VALID,91.5249,VALID,0,VALID,23.7384,VALID,55,VALID,0,
2010-07-10, 00:40:04,VALID,1001.95,VALID,0,VALID,91.6775,VALID,0,VALID,23.7597,VALID,55,VALID,0,
2010-07-10, 00:41:04,VALID,1001.96,VALID,0,VALID,91.7843,VALID,0,VALID,23.7597,VALID,55,VALID,0,
2010-07-10, 00:42:04,VALID,1001.95,VALID,0,VALID,91.8072,VALID,0,VALID,23.7189,VALID,55,VALID,0,
2010-07-10, 00:43:04,VALID,1001.97,VALID,0,VALID,91.7996,VALID,0,VALID,23.7384,VALID,55,VALID,0,
2010-07-10, 00:44:04,VALID,1001.95,VALID,0,VALID,91.8606,VALID,0,VALID,23.7189,VALID,55,VALID,0,
2010-07-10, 00:45:04,VALID,1001.89,VALID,0,VALID,91.8911,VALID,0,VALID,23.7189,VALID,55,VALID,0.420703,
2010-07-10, 00:46:04,VALID,1001.91,VALID,0,VALID,91.8301,VALID,0,VALID,23.7189,VALID,55,VALID,0.420312,
2010-07-10, 00:47:04,VALID,1001.86,VALID,0,VALID,91.7233,VALID,0,VALID,23.6994,VALID,55,VALID,0.0617188,
2010-07-10, 00:48:04,VALID,1001.86,VALID,0,VALID,91.6165,VALID,0,VALID,23.7012,VALID,55,VALID,0,
2010-07-10, 00:49:04,VALID,1001.85,VALID,0,VALID,91.6241,VALID,0,VALID,23.6604,VALID,55,VALID,0,
2010-07-10, 00:50:04,VALID,1001.82,VALID,0,VALID,91.6241,VALID,0,VALID,23.6427,VALID,55,VALID,0,
2010-07-10, 00:51:04,VALID,1001.82,VALID,0,VALID,91.6088,VALID,0,VALID,23.6036,VALID,55,VALID,0,
2010-07-10, 00:52:04,VALID,1001.8,VALID,0,VALID,91.7004,VALID,0,VALID,23.6036,VALID,55,VALID,0,
2010-07-10, 00:53:04,VALID,1001.81,VALID,0,VALID,91.7843,VALID,0,VALID,23.5646,VALID,55,VALID,0,
2010-07-10, 00:54:04,VALID,1001.82,VALID,0,VALID,91.914,VALID,0,VALID,23.5451,VALID,55,VALID,0,
2010-07-10, 00:55:04,VALID,1001.84,VALID,0,VALID,92.0666,VALID,0,VALID,23.5451,VALID,56,VALID,0,
2010-07-10, 00:56:04,VALID,1001.79,VALID,0,VALID,92.1887,VALID,0,VALID,23.5664,VALID,80,VALID,0,
2010-07-10, 00:57:04,VALID,1001.74,VALID,0,VALID,92.2726,VALID,0,VALID,23.5451,VALID,98,VALID,0,
2010-07-10, 00:58:04,VALID,1001.74,VALID,0,VALID,92.2879,VALID,0,VALID,23.5451,VALID,98,VALID,0,
2010-07-10, 00:59:04,VALID,1001.73,VALID,0,VALID,92.2803,VALID,0,VALID,23.5256,VALID,98,VALID,0,
2010-07-10, 01:00:04,VALID,1001.7,VALID,0,VALID,92.2268,VALID,0,VALID,23.5256,VALID,98,VALID,0,
2010-07-10, 01:01:04,VALID,1001.7,VALID,0,VALID,92.1963,VALID,0,VALID,23.5274,VALID,98,VALID,0,
2010-07-10, 01:02:04,VALID,1001.69,VALID,0,VALID,92.2879,VALID,0,VALID,23.4866,VALID,69,VALID,0,
2010-07-10, 01:03:04,VALID,1001.71,VALID,0,VALID,92.4176,VALID,0,VALID,23.4866,VALID,51,VALID,0,
2010-07-10, 01:04:04,VALID,1001.72,VALID,0,VALID,92.3489,VALID,0,VALID,23.4671,VALID,9,VALID,0,
2010-07-10, 01:05:04,VALID,1001.71,VALID,0,VALID,92.4328,VALID,0,VALID,23.4653,VALID,9,VALID,0,
2010-07-10, 01:06:04,VALID,1001.7,VALID,0,VALID,92.532,VALID,0.112286,VALID,23.4848,VALID,9,VALID,0,
2010-07-10, 01:07:04,VALID,1001.72,VALID,0,VALID,92.5626,VALID,0.112286,VALID,23.4848,VALID,9,VALID,0,
2010-07-10, 01:08:04,VALID,1001.71,VALID,0,VALID,92.5397,VALID,0.112286,VALID,23.4848,VALID,9,VALID,0,
2010-07-10, 01:09:04,VALID,1001.72,VALID,0,VALID,92.5702,VALID,0,VALID,23.4848,VALID,9,VALID,0,
2010-07-10, 01:10:04,VALID,1001.71,VALID,0,VALID,92.6312,VALID,0,VALID,23.5061,VALID,9,VALID,0,
2010-07-10, 01:11:04,VALID,1001.74,VALID,0,VALID,92.6617,VALID,0,VALID,23.4848,VALID,9,VALID,0,
2010-07-10, 01:12:04,VALID,1001.74,VALID,0,VALID,92.6388,VALID,0,VALID,23.5043,VALID,9,VALID,0,
2010-07-10, 01:13:05,VALID,1001.71,VALID,0,VALID,92.5702,VALID,0,VALID,23.4848,VALID,9,VALID,0,
2010-07-10, 01:14:05,VALID,1001.72,VALID,0,VALID,92.4176,VALID,0,VALID,23.4653,VALID,9,VALID,0,
2010-07-10, 01:15:05,VALID,1001.7,VALID,0,VALID,92.2879,VALID,0,VALID,23.4475,VALID,9,VALID,0,
2010-07-10, 01:16:05,VALID,1001.71,VALID,0,VALID,92.2421,VALID,0,VALID,23.4067,VALID,9,VALID,0,
2010-07-10, 01:17:05,VALID,1001.68,VALID,0,VALID,92.2268,VALID,0,VALID,23.4067,VALID,9,VALID,0,
2010-07-10, 01:18:05,VALID,1001.67,VALID,0,VALID,92.326,VALID,0,VALID,23.4067,VALID,9,VALID,0,
2010-07-10, 01:19:05,VALID,1001.64,VALID,0,VALID,92.326,VALID,0,VALID,23.4067,VALID,9,VALID,0,
2010-07-10, 01:20:05,VALID,1001.65,VALID,0,VALID,92.3031,VALID,0,VALID,23.4103,VALID,9,VALID,0,
2010-07-10, 01:21:05,VALID,1001.62,VALID,0,VALID,92.3794,VALID,0,VALID,23.389,VALID,9,VALID,0,
2010-07-10, 01:22:05,VALID,1001.65,VALID,0,VALID,92.4557,VALID,0,VALID,23.4085,VALID,9,VALID,0,
2010-07-10, 01:23:05,VALID,1001.6,VALID,0,VALID,92.41,VALID,0,VALID,23.4085,VALID,9,VALID,0,
2010-07-10, 01:24:05,VALID,1001.59,VALID,0,VALID,92.4176,VALID,0,VALID,23.4085,VALID,9,VALID,0,
2010-07-10, 01:25:05,VALID,1001.55,VALID,0,VALID,92.3718,VALID,0,VALID,23.3695,VALID,9,VALID,0,
2010-07-10, 01:26:05,VALID,1001.52,VALID,0,VALID,92.41,VALID,0,VALID,23.3695,VALID,9,VALID,0,
2010-07-10, 01:27:05,VALID,1001.52,VALID,0,VALID,92.4481,VALID,0,VALID,23.3695,VALID,9,VALID,0,
2010-07-10, 01:28:05,VALID,1001.52,VALID,0,VALID,92.5473,VALID,0,VALID,23.389,VALID,20,VALID,0,
2010-07-10, 01:29:05,VALID,1001.52,VALID,0,VALID,92.5854,VALID,0,VALID,23.4085,VALID,20,VALID,0,
2010-07-10, 01:30:05,VALID,1001.49,VALID,0,VALID,92.6007,VALID,0,VALID,23.428,VALID,20,VALID,0,
2010-07-10, 01:31:05,VALID,1001.46,VALID,0,VALID,92.5626,VALID,0,VALID,23.4085,VALID,20,VALID,0,
2010-07-10, 01:32:05,VALID,1001.46,VALID,0,VALID,92.3489,VALID,0,VALID,23.4085,VALID,20,VALID,0,
2010-07-10, 01:33:05,VALID,1001.44,VALID,0,VALID,92.2955,VALID,0,VALID,23.389,VALID,34,VALID,0.280078,
2010-07-10, 01:34:05,VALID,1001.41,VALID,0,VALID,92.3947,VALID,0,VALID,23.389,VALID,40,VALID,0.521875,
2010-07-10, 01:35:05,VALID,1001.39,VALID,0,VALID,92.4557,VALID,0,VALID,23.389,VALID,40,VALID,0.485938,
2010-07-10, 01:36:05,VALID,1001.36,VALID,0,VALID,92.4481,VALID,0,VALID,23.3695,VALID,40,VALID,0.347656,
2010-07-10, 01:37:05,VALID,1001.34,VALID,0,VALID,92.3871,VALID,0,VALID,23.3695,VALID,40,VALID,0.326172,
2010-07-10, 01:38:05,VALID,1001.36,VALID,0,VALID,92.3947,VALID,0,VALID,23.3695,VALID,40,VALID,0.246484,
2010-07-10, 01:39:05,VALID,1001.36,VALID,0,VALID,92.3871,VALID,0,VALID,23.3305,VALID,40,VALID,0,
2010-07-10, 01:40:05,VALID,1001.3,VALID,0,VALID,92.4786,VALID,0,VALID,23.3518,VALID,40,VALID,0,
2010-07-10, 01:41:05,VALID,1001.32,VALID,0,VALID,92.5397,VALID,0,VALID,23.3323,VALID,40,VALID,0,
2010-07-10, 01:42:05,VALID,1001.3,VALID,0,VALID,92.6083,VALID,0,VALID,23.3323,VALID,40,VALID,0,
2010-07-10, 01:43:05,VALID,1001.29,VALID,0,VALID,92.6541,VALID,0,VALID,23.3305,VALID,40,VALID,0,
2010-07-10, 01:44:05,VALID,1001.27,VALID,0,VALID,92.6465,VALID,0,VALID,23.3323,VALID,70,VALID,0.46875,
2010-07-10, 01:45:05,VALID,1001.25,VALID,0,VALID,92.4634,VALID,0,VALID,23.3323,VALID,80,VALID,0.574609,
2010-07-10, 01:46:05,VALID,1001.27,VALID,0,VALID,92.3184,VALID,0,VALID,23.3305,VALID,100,VALID,0.608203,
2010-07-10, 01:47:05,VALID,1001.26,VALID,0,VALID,92.1582,VALID,0,VALID,23.3305,VALID,105,VALID,0.430469,
2010-07-10, 01:48:05,VALID,1001.29,VALID,0,VALID,91.998,VALID,0,VALID,23.3695,VALID,105,VALID,0.00195313,
2010-07-10, 01:49:05,VALID,1001.31,VALID,0,VALID,91.7614,VALID,0,VALID,23.3695,VALID,105,VALID,0,
2010-07-10, 01:50:05,VALID,1001.29,VALID,0,VALID,91.792,VALID,0,VALID,23.4085,VALID,105,VALID,0,
2010-07-10, 01:51:05,VALID,1001.32,VALID,0,VALID,91.8606,VALID,0,VALID,23.4067,VALID,105,VALID,0,
2010-07-10, 01:52:05,VALID,1001.32,VALID,0,VALID,91.8683,VALID,0,VALID,23.428,VALID,105,VALID,0,
2010-07-10, 01:53:05,VALID,1001.33,VALID,0,VALID,91.7996,VALID,0,VALID,23.4475,VALID,105,VALID,0,
2010-07-10, 01:54:05,VALID,1001.33,VALID,0,VALID,91.6775,VALID,0,VALID,23.4067,VALID,105,VALID,0,
2010-07-10, 01:55:05,VALID,1001.32,VALID,0,VALID,91.5554,VALID,0,VALID,23.389,VALID,105,VALID,0,
2010-07-10, 01:56:05,VALID,1001.34,VALID,0,VALID,91.586,VALID,0,VALID,23.3482,VALID,105,VALID,0,
2010-07-10, 01:57:05,VALID,1001.34,VALID,0,VALID,91.5478,VALID,0,VALID,23.3092,VALID,105,VALID,0,
2010-07-10, 01:58:05,VALID,1001.37,VALID,0,VALID,91.6241,VALID,0,VALID,23.311,VALID,105,VALID,0,
2010-07-10, 01:59:05,VALID,1001.37,VALID,0,VALID,91.647,VALID,0,VALID,23.2702,VALID,103,VALID,0,
2010-07-10, 02:00:05,VALID,1001.36,VALID,0,VALID,91.6775,VALID,0,VALID,23.2524,VALID,59,VALID,0.579687,
2010-07-10, 02:01:05,VALID,1001.33,VALID,0,VALID,91.6012,VALID,0,VALID,23.2329,VALID,32,VALID,0.798437,
2010-07-10, 02:02:05,VALID,1001.34,VALID,0,VALID,91.7385,VALID,0.112286,VALID,23.2117,VALID,25,VALID,0.870703,
2010-07-10, 02:03:05,VALID,1001.33,VALID,0,VALID,91.8225,VALID,0,VALID,23.2134,VALID,15,VALID,0.830469,
2010-07-10, 02:04:05,VALID,1001.34,VALID,0,VALID,91.7767,VALID,0,VALID,23.1744,VALID,15,VALID,0.635938,
2010-07-10, 02:05:05,VALID,1001.33,VALID,0,VALID,91.9293,VALID,0,VALID,23.1336,VALID,15,VALID,0.328516,
2010-07-10, 02:06:05,VALID,1001.3,VALID,0,VALID,92.0971,VALID,0,VALID,23.1141,VALID,15,VALID,0.122656,
2010-07-10, 02:07:05,VALID,1001.31,VALID,0,VALID,92.1124,VALID,0,VALID,23.1159,VALID,15,VALID,0,
2010-07-10, 02:08:05,VALID,1001.32,VALID,0,VALID,92.2497,VALID,0,VALID,23.0946,VALID,15,VALID,0,
2010-07-10, 02:09:05,VALID,1001.3,VALID,0,VALID,92.3794,VALID,0.112286,VALID,23.0751,VALID,15,VALID,0,
2010-07-10, 02:10:05,VALID,1001.29,VALID,0,VALID,92.4557,VALID,0,VALID,23.0751,VALID,15,VALID,0.364062,
2010-07-10, 02:11:05,VALID,1001.29,VALID,0,VALID,92.5168,VALID,0,VALID,23.0556,VALID,108,VALID,0.632422,
2010-07-10, 02:12:05,VALID,1001.31,VALID,0,VALID,92.3642,VALID,0,VALID,23.0556,VALID,110,VALID,0.578906,
2010-07-10, 02:13:05,VALID,1001.3,VALID,0,VALID,92.2803,VALID,0,VALID,23.0556,VALID,110,VALID,0.814844,
2010-07-10, 02:14:05,VALID,1001.31,VALID,0,VALID,92.0666,VALID,0,VALID,23.0751,VALID,100,VALID,0.464844,
2010-07-10, 02:15:05,VALID,1001.31,VALID,0,VALID,91.9827,VALID,0,VALID,23.1159,VALID,100,VALID,0.216016,
2010-07-10, 02:16:05,VALID,1001.29,VALID,0,VALID,91.8759,VALID,0.112286,VALID,23.0946,VALID,100,VALID,0,
2010-07-10, 02:17:05,VALID,1001.29,VALID,0,VALID,91.7462,VALID,0,VALID,23.0751,VALID,100,VALID,0.0105469,
2010-07-10, 02:18:05,VALID,1001.27,VALID,0,VALID,91.792,VALID,0,VALID,23.1141,VALID,4,VALID,0.617578,
2010-07-10, 02:19:05,VALID,1001.29,VALID,0,VALID,91.6317,VALID,0.112286,VALID,23.1159,VALID,337,VALID,0.925391,
2010-07-10, 02:20:05,VALID,1001.28,VALID,0,VALID,91.853,VALID,0.112286,VALID,23.0946,VALID,337,VALID,0.786328,
2010-07-10, 02:21:05,VALID,1001.28,VALID,0,VALID,92.0056,VALID,0.112286,VALID,23.0751,VALID,337,VALID,0.621875,
2010-07-10, 02:22:05,VALID,1001.25,VALID,0,VALID,92.1429,VALID,0,VALID,23.0964,VALID,337,VALID,0.278516,
2010-07-10, 02:23:05,VALID,1001.25,VALID,0,VALID,92.2574,VALID,0,VALID,23.0769,VALID,337,VALID,0.170312,
2010-07-10, 02:24:05,VALID,1001.26,VALID,0,VALID,92.3489,VALID,0,VALID,23.0964,VALID,276,VALID,0.360547,
2010-07-10, 02:25:05,VALID,1001.24,VALID,0,VALID,92.3184,VALID,0,VALID,23.0946,VALID,275,VALID,0.186719,
2010-07-10, 02:26:05,VALID,1001.21,VALID,0,VALID,92.3108,VALID,0,VALID,23.1354,VALID,215,VALID,0.675391,
2010-07-10, 02:27:05,VALID,1001.19,VALID,0,VALID,92.0971,VALID,0,VALID,23.1141,VALID,196,VALID,0.937109,
2010-07-10, 02:28:05,VALID,1001.15,VALID,0,VALID,92.0437,VALID,0,VALID,23.1744,VALID,180,VALID,0.977734,
2010-07-10, 02:29:05,VALID,1001.15,VALID,0,VALID,91.6623,VALID,0,VALID,23.2117,VALID,157,VALID,1.01133,
2010-07-10, 02:30:05,VALID,1001.16,VALID,0,VALID,91.2274,VALID,0.112286,VALID,23.2719,VALID,172,VALID,0.835547,
2010-07-10, 02:31:05,VALID,1001.16,VALID,0,VALID,90.5407,VALID,0,VALID,23.2897,VALID,166,VALID,0.818359,
2010-07-10, 02:32:05,VALID,1001.16,VALID,0,VALID,90.0066,VALID,0,VALID,23.3287,VALID,157,VALID,1.37812,
2010-07-10, 02:33:05,VALID,1001.17,VALID,0,VALID,89.5107,VALID,0,VALID,23.389,VALID,156,VALID,1.09063,
2010-07-10, 02:34:05,VALID,1001.19,VALID,0,VALID,89.1368,VALID,0,VALID,23.4475,VALID,160,VALID,0.85,
2010-07-10, 02:35:05,VALID,1001.18,VALID,0,VALID,88.9461,VALID,0.112286,VALID,23.4475,VALID,159,VALID,0.841016,
2010-07-10, 02:36:05,VALID,1001.19,VALID,0,VALID,88.9537,VALID,0,VALID,23.4067,VALID,154,VALID,0.753516,
2010-07-10, 02:37:05,VALID,1001.17,VALID,0,VALID,88.9919,VALID,0,VALID,23.3872,VALID,154,VALID,0.830469,
2010-07-10, 02:38:05,VALID,1001.17,VALID,0,VALID,88.9843,VALID,0,VALID,23.389,VALID,154,VALID,0.847656,
2010-07-10, 02:39:05,VALID,1001.19,VALID,0,VALID,89.0224,VALID,0,VALID,23.35,VALID,154,VALID,0.715625,
2010-07-10, 02:40:05,VALID,1001.18,VALID,0,VALID,89.1216,VALID,0,VALID,23.3305,VALID,154,VALID,0.707031,
2010-07-10, 02:41:05,VALID,1001.2,VALID,0,VALID,89.2132,VALID,0,VALID,23.311,VALID,154,VALID,0.458594,
2010-07-10, 02:42:05,VALID,1001.2,VALID,0,VALID,89.3123,VALID,0,VALID,23.2897,VALID,154,VALID,0.297656,
2010-07-10, 02:43:05,VALID,1001.19,VALID,0,VALID,89.3886,VALID,0,VALID,23.2702,VALID,154,VALID,0.134766,
2010-07-10, 02:44:05,VALID,1001.19,VALID,0,VALID,89.3963,VALID,0,VALID,23.2915,VALID,154,VALID,0.195313,
2010-07-10, 02:45:05,VALID,1001.21,VALID,0,VALID,89.442,VALID,0,VALID,23.2719,VALID,154,VALID,0,
2010-07-10, 02:46:05,VALID,1001.2,VALID,0,VALID,89.5489,VALID,0,VALID,23.2524,VALID,154,VALID,0,
2010-07-10, 02:47:05,VALID,1001.17,VALID,0,VALID,89.6862,VALID,0,VALID,23.2524,VALID,154,VALID,0.137891,
2010-07-10, 02:48:05,VALID,1001.14,VALID,0,VALID,89.6786,VALID,0,VALID,23.2134,VALID,154,VALID,0.223047,
2010-07-10, 02:49:05,VALID,1001.15,VALID,0,VALID,89.5031,VALID,0,VALID,23.2134,VALID,148,VALID,0.00742187,
2010-07-10, 02:50:05,VALID,1001.12,VALID,0,VALID,89.4954,VALID,0,VALID,23.1921,VALID,139,VALID,0.945703,
2010-07-10, 02:51:05,VALID,1001.11,VALID,0,VALID,89.3428,VALID,0,VALID,23.2134,VALID,134,VALID,1.06797,
2010-07-10, 02:52:05,VALID,1001.11,VALID,0,VALID,89.3428,VALID,0,VALID,23.2134,VALID,134,VALID,0.978516,
2010-07-10, 02:53:05,VALID,1001.08,VALID,0,VALID,89.3963,VALID,0,VALID,23.1939,VALID,134,VALID,1.23672,
2010-07-10, 02:54:05,VALID,1001.08,VALID,0,VALID,89.4802,VALID,0,VALID,23.1141,VALID,131,VALID,1.32109,
2010-07-10, 02:55:05,VALID,1001.08,VALID,0,VALID,89.8617,VALID,0,VALID,23.1159,VALID,132,VALID,1.23594,
2010-07-10, 02:56:05,VALID,1001.11,VALID,0,VALID,90.1211,VALID,0.112286,VALID,23.0946,VALID,133,VALID,0.935547,
2010-07-10, 02:57:05,VALID,1001.1,VALID,0,VALID,90.3957,VALID,0,VALID,23.0769,VALID,143,VALID,0.899219,
2010-07-10, 02:58:05,VALID,1001.07,VALID,0,VALID,90.556,VALID,0,VALID,23.0556,VALID,143,VALID,0.763281,
2010-07-10, 02:59:05,VALID,1001.07,VALID,0,VALID,90.7543,VALID,0,VALID,23.0556,VALID,143,VALID,0.770312,
2010-07-10, 03:00:05,VALID,1001.04,VALID,0,VALID,90.8077,VALID,0,VALID,23.0556,VALID,143,VALID,0.785547,
2010-07-10, 03:01:05,VALID,1001.02,VALID,0,VALID,90.6857,VALID,0,VALID,23.0556,VALID,143,VALID,0.771094,
2010-07-10, 03:02:05,VALID,1000.99,VALID,0,VALID,90.5407,VALID,0,VALID,23.0751,VALID,143,VALID,0.368359,
2010-07-10, 03:03:05,VALID,1000.99,VALID,0,VALID,90.4415,VALID,0,VALID,23.0751,VALID,137,VALID,0.670313,
2010-07-10, 03:04:05,VALID,1000.97,VALID,0,VALID,90.266,VALID,0,VALID,23.0769,VALID,130,VALID,0.737891,
2010-07-10, 03:05:05,VALID,1000.99,VALID,0,VALID,90.1668,VALID,0,VALID,23.0556,VALID,130,VALID,0.451562,
2010-07-10, 03:06:05,VALID,1001.01,VALID,0,VALID,90.0982,VALID,0,VALID,23.0573,VALID,130,VALID,0.153906,
2010-07-10, 03:07:05,VALID,1000.98,VALID,0,VALID,90.0524,VALID,0,VALID,23.0166,VALID,130,VALID,0,
2010-07-10, 03:08:05,VALID,1000.97,VALID,0,VALID,90.2889,VALID,0,VALID,23.0183,VALID,130,VALID,0.467187,
2010-07-10, 03:09:05,VALID,1000.99,VALID,0,VALID,90.6094,VALID,0,VALID,22.9581,VALID,130,VALID,0.00234375,
2010-07-10, 03:10:05,VALID,1000.97,VALID,0,VALID,90.8764,VALID,0,VALID,22.9581,VALID,130,VALID,0.178516,
2010-07-10, 03:11:05,VALID,1000.99,VALID,0,VALID,90.9832,VALID,0,VALID,22.9793,VALID,130,VALID,0.00195313,
2010-07-10, 03:12:05,VALID,1001.01,VALID,0,VALID,91.0214,VALID,0,VALID,22.9581,VALID,130,VALID,0,
2010-07-10, 03:13:05,VALID,1001,VALID,0,VALID,91.0366,VALID,0,VALID,22.9988,VALID,130,VALID,0,
2010-07-10, 03:14:05,VALID,1001.02,VALID,0,VALID,91.0214,VALID,0,VALID,22.9793,VALID,130,VALID,0.304297,
2010-07-10, 03:15:05,VALID,1001.02,VALID,0,VALID,90.9374,VALID,0,VALID,22.9793,VALID,130,VALID,0.479688,
2010-07-10, 03:16:05,VALID,1001.03,VALID,0,VALID,90.8993,VALID,0,VALID,22.9581,VALID,130,VALID,0.546484,
2010-07-10, 03:17:05,VALID,1001.03,VALID,0,VALID,90.8306,VALID,0.112286,VALID,22.9988,VALID,130,VALID,0.520703,
2010-07-10, 03:18:05,VALID,1001.06,VALID,0,VALID,90.6475,VALID,0,VALID,22.9988,VALID,143,VALID,0.594922,
2010-07-10, 03:19:05,VALID,1001.06,VALID,0,VALID,90.4873,VALID,0,VALID,22.9988,VALID,143,VALID,0.484375,
2010-07-10, 03:20:05,VALID,1001.05,VALID,0,VALID,90.3347,VALID,0,VALID,23.0378,VALID,143,VALID,0.737891,
2010-07-10, 03:21:05,VALID,1001.04,VALID,0,VALID,90.1058,VALID,0,VALID,23.0183,VALID,153,VALID,0.864062,
2010-07-10, 03:22:05,VALID,1001.03,VALID,0,VALID,90.0448,VALID,0,VALID,23.0361,VALID,156,VALID,0.957812,
2010-07-10, 03:23:05,VALID,1001,VALID,0,VALID,89.8083,VALID,0,VALID,23.0964,VALID,156,VALID,0.925781,
2010-07-10, 03:24:05,VALID,1000.98,VALID,0,VALID,89.4802,VALID,0,VALID,23.0964,VALID,159,VALID,1.15195,
2010-07-10, 03:25:05,VALID,1000.96,VALID,0,VALID,89.2742,VALID,0,VALID,23.0946,VALID,161,VALID,1.35586,
2010-07-10, 03:26:05,VALID,1000.92,VALID,0,VALID,89.1292,VALID,0,VALID,23.1159,VALID,162,VALID,1.29883,
2010-07-10, 03:27:05,VALID,1000.91,VALID,0,VALID,88.9995,VALID,0,VALID,23.1159,VALID,162,VALID,1.08789,
2010-07-10, 03:28:05,VALID,1000.88,VALID,0,VALID,89.0529,VALID,0,VALID,23.1159,VALID,163,VALID,0.950391,
2010-07-10, 03:29:05,VALID,1000.88,VALID,0,VALID,89.0834,VALID,0,VALID,23.0751,VALID,168,VALID,1.14414,
2010-07-10, 03:30:05,VALID,1000.88,VALID,0,VALID,89.1674,VALID,0,VALID,23.0769,VALID,167,VALID,1.02656,
2010-07-10, 03:31:05,VALID,1000.9,VALID,0,VALID,89.2894,VALID,0,VALID,23.0378,VALID,159,VALID,0.784375,
2010-07-10, 03:32:05,VALID,1000.87,VALID,0,VALID,89.4039,VALID,0,VALID,22.9971,VALID,159,VALID,0.608594,
2010-07-10, 03:33:05,VALID,1000.87,VALID,0,VALID,89.5412,VALID,0,VALID,22.9385,VALID,157,VALID,0.471875,
2010-07-10, 03:34:05,VALID,1000.83,VALID,0,VALID,89.648,VALID,0,VALID,22.9403,VALID,156,VALID,0.403125,
2010-07-10, 03:35:05,VALID,1000.82,VALID,0,VALID,89.9303,VALID,0,VALID,22.88,VALID,156,VALID,0.396875,
2010-07-10, 03:36:05,VALID,1000.8,VALID,0,VALID,90.1897,VALID,0,VALID,22.8818,VALID,156,VALID,0.389844,
2010-07-10, 03:37:05,VALID,1000.81,VALID,0,VALID,90.3347,VALID,0,VALID,22.8605,VALID,156,VALID,0.345703,
2010-07-10, 03:38:05,VALID,1000.81,VALID,0,VALID,90.4797,VALID,0,VALID,22.8427,VALID,156,VALID,0,
2010-07-10, 03:39:05,VALID,1000.81,VALID,0,VALID,90.7009,VALID,0,VALID,22.8427,VALID,132,VALID,0,
2010-07-10, 03:40:05,VALID,1000.82,VALID,0,VALID,90.7849,VALID,0,VALID,22.8037,VALID,121,VALID,0,
2010-07-10, 03:41:05,VALID,1000.81,VALID,0,VALID,90.8611,VALID,0,VALID,22.7842,VALID,112,VALID,0,
2010-07-10, 03:42:05,VALID,1000.8,VALID,0,VALID,91.0061,VALID,0,VALID,22.7842,VALID,94,VALID,0,
2010-07-10, 03:43:05,VALID,1000.81,VALID,0,VALID,91.029,VALID,0,VALID,22.7452,VALID,94,VALID,0,
2010-07-10, 03:44:05,VALID,1000.81,VALID,0,VALID,91.1053,VALID,0,VALID,22.724,VALID,94,VALID,0,
2010-07-10, 03:45:05,VALID,1000.79,VALID,0,VALID,91.1892,VALID,0,VALID,22.7257,VALID,94,VALID,0,
2010-07-10, 03:46:05,VALID,1000.81,VALID,0,VALID,91.1587,VALID,0,VALID,22.685,VALID,94,VALID,0,
2010-07-10, 03:47:05,VALID,1000.8,VALID,0,VALID,91.2503,VALID,0,VALID,22.6867,VALID,94,VALID,0,
2010-07-10, 03:48:05,VALID,1000.78,VALID,0,VALID,91.3571,VALID,0,VALID,22.6672,VALID,94,VALID,0,
2010-07-10, 03:49:05,VALID,1000.75,VALID,0,VALID,91.4486,VALID,0,VALID,22.6867,VALID,94,VALID,0,
2010-07-10, 03:50:05,VALID,1000.76,VALID,0,VALID,91.4715,VALID,0,VALID,22.646,VALID,94,VALID,0,
2010-07-10, 03:51:05,VALID,1000.73,VALID,0,VALID,91.5097,VALID,0,VALID,22.6264,VALID,94,VALID,0,
2010-07-10, 03:52:05,VALID,1000.71,VALID,0,VALID,91.5249,VALID,0,VALID,22.6069,VALID,94,VALID,0,
2010-07-10, 03:53:05,VALID,1000.73,VALID,0,VALID,91.6317,VALID,0.112286,VALID,22.6264,VALID,94,VALID,0,